Flag for Germany Weather past 2 weeks in Nürburg, Rhineland-Palatinate, Germany

Now
54 °F

Passing clouds.


Feels Like: 54 °F
Forecast: 48 / 60 °F
Wind: 5 mph from Southwest

Location: Nuerburg-Barweiler

Current Time: Jul 29, 2015 at 10:03:21 AM

Latest Report: Jul 29, 2015 at 9:00 AM


Visibility: 34 mi

Pressure: 29.81 "Hg (27.74 "Hg at 601m altitude)

Humidity: 76%

Dew point: 47 °F

Location of NürburgLocation

Historic Weather in Nürburg — Graph

°F

Nürburg temperature yesterday

Maximum temperature yesterday: 60 °F (at 3:00 PM)
Minimum temperature yesterday: 50 °F (at 6:00 AM)
Average temperature yesterday: 55 °F

Past Weeks' High & Low Weather Summary

 TemperatureHumidityPressure
High88 °F (Jul 17, 3:00 PM)100% (Jul 19, 7:00 AM)30.14 "Hg (Jul 19, 7:00 AM)
Low47 °F (Jul 26, 4:00 AM)21% (Jul 17, 3:00 PM)29.59 "Hg (Jul 25, 7:00 AM)
Average65 °F72%29.91 "Hg
* Reported Jul 14 9:00 AM — Jul 29 9:00 AM, Nürburg, Weather by CustomWeather, © 2015

Note: Actual official high and low records may vary slightly from our data, if they occured in-between our weather recording intervals... More about our weather records

Advertising

Nürburg weather history for previous 24 hours

 ConditionsComfort  
Time TempWeatherWind HumidityBarometerVisibility
9:00 AM
Wed, Jul 29
54 °FPassing clouds.5 mph76%29.81 "Hg34 mi
8:00 AM51 °FPassing clouds.5 mph81%29.82 "Hg31 mi
7:00 AM50 °FPartly sunny.5 mph86%29.83 "Hg31 mi
6:00 AM47 °FPassing clouds.3 mph89%29.84 "Hg31 mi
4:00 AM50 °FPassing clouds.3 mph87%29.85 "Hg25 mi
3:00 AM50 °FPassing clouds.3 mph84%29.84 "Hg34 mi
2:00 AM51 °FPassing clouds.5 mph82%29.84 "Hg34 mi
1:00 AM52 °FClear.6 mph78%29.83 "Hg37 mi
11:00 PM
Tue, Jul 28
53 °FOvercast.5 mph76%29.84 "Hg28 mi
10:00 PM54 °FOvercast.5 mph75%29.83 "Hg28 mi
9:00 PM54 °FOvercast.7 mph78%29.83 "Hg28 mi
8:00 PM57 °FOvercast.3 mph64%29.80 "Hg37 mi
7:00 PM58 °FOvercast.6 mph58%29.79 "Hg37 mi
6:00 PM59 °FOvercast.6 mph57%29.78 "Hg34 mi
5:00 PM60 °FOvercast.6 mph55%29.77 "Hg37 mi
4:00 PM60 °FOvercast.7 mph52%29.77 "Hg37 mi
3:00 PM60 °FOvercast.7 mph53%29.76 "Hg37 mi
2:00 PM60 °FOvercast.7 mph56%29.76 "Hg34 mi
1:00 PM60 °FOvercast.7 mph57%29.76 "Hg37 mi
12:00 PM58 °FOvercast.8 mph62%29.77 "Hg34 mi
10:00 AM54 °FOvercast.7 mph75%29.78 "Hg37 mi
Weather by CustomWeather, © 2015

See weather overviewHow to use our weather pages